[[{"header":{"parameterUnit":"m.s-1","parameterCategory":1,"la1":30.2991,"la2":30.254,"lo1":-89.0895,"lo2":-89.0444,"dy":0.0017,"dx":0.0017,"nx":28,"ny":28,"refTime":"2024-07-11T09:00:00:Z","depth":0,"parameterNumber":2,"parameterNumberName":"U-component_of_WINDS"},"data":[0,0,0,0,0,0,0,0,0,0,0,0,0,0,0,0,0,0,0,0,0,0,0,0,0,0,0,0,0,0,0,0,0,0,0,0,0,0,0,0,0,0,0,0,0,0,0,0,0,0,0,0,0,0,0,0,0,0,1.5122,1.5123,0,1.5172,1.5172,1.5173,1.5171,1.517,1.517,1.5169,1.5221,1.5223,1.5225,0,0,0,0,0,0,0,0,0,0,0,0,0,1.5027,1.5029,1.5122,1.5123,1.5123,1.5172,1.5172,1.5173,1.5171,1.517,1.5169,1.5169,1.522,1.5223,1.5225,0,0,0,0,0,0,0,0,0,0,0,0,0,1.5072,1.503,1.5122,1.5128,1.5129,1.5172,1.5172,1.5173,1.5171,1.517,1.5169,1.5168,1.522,1.5223,1.5226,1.5265,0,0,1.5235,1.5236,0,0,0,0,0,0,0,0,1.5069,1.5075,1.5127,1.5128,1.5129,1.5164,1.5158,1.5204,1.5171,1.5155,1.5169,1.5168,1.5203,1.5207,1.5219,1.5268,1.527,1.5235,1.5237,1.5238,1.5239,0,0,0,0,0,0,0,1.5066,1.5073,1.5142,1.5127,1.5129,1.5129,1.5134,1.5167,1.5184,1.5157,1.5157,1.5162,1.5204,1.5216,1.522,1.5271,1.5235,1.5238,1.524,1.5241,1.5357,1.5358,0,0,0,0,0,0,1.5062,1.5071,1.514,1.5143,1.5096,1.5132,1.5137,1.5154,1.5184,1.5188,1.5163,1.5162,1.5211,1.5217,1.5222,1.5272,1.5238,1.5241,1.5243,1.5355,1.5357,1.5358,0,0,0,0,0,0,1.506,1.5068,1.5138,1.5107,1.5116,1.5134,1.5153,1.5155,1.5168,1.5189,1.5192,1.5173,1.5211,1.5218,1.5255,1.5273,1.5243,1.5245,1.5354,1.5356,1.5358,1.537,0,0,0,0,0,0,1.5057,1.5067,1.5082,1.5107,1.5118,1.5169,1.5154,1.5157,1.5173,1.5172,1.5199,1.5202,1.521,1.525,1.5258,1.5277,1.5248,1.5352,1.5355,1.5357,1.5368,1.5372,1.5376,0,0,0,0,0,1.5054,1.5084,1.5083,1.5091,1.5136,1.5171,1.5176,1.5185,1.5175,1.519,1.5204,1.5202,1.527,1.5254,1.5263,1.5283,1.5351,1.5354,1.5357,1.5367,1.5372,1.5376,0,0,0,0,0,0,1.506,1.5087,1.5086,1.5125,1.5146,1.517,1.519,1.519,1.5214,1.5212,1.5222,1.5228,1.5265,1.5278,1.526,1.5324,1.531,1.5314,1.5314,1.5319,1.5323,1.5319,1.525,0,0,0,0,0,1.5066,1.5091,1.5113,1.5145,1.5156,1.5171,1.5186,1.5191,1.5213,1.5221,1.5238,1.5259,1.5286,1.5303,1.5329,1.537,1.5377,1.5389,1.5392,1.5395,1.5399,1.5423,1.5429,1.5367,1.5367,1.5367,0,0,1.5078,1.5096,1.5111,1.5147,1.5164,1.519,1.5178,1.5206,1.5226,1.5226,1.5262,1.5275,1.53,1.534,1.5358,1.5351,1.5418,1.5399,1.5401,1.5404,1.5427,1.5433,1.5438,1.5369,1.5369,1.5369,0,0,1.5114,1.513,1.5159,1.5176,1.5201,1.5211,1.5218,1.5243,1.5252,1.5288,1.5289,1.5313,1.5358,1.5376,1.5391,1.5436,1.5435,1.5444,1.5464,1.5487,1.5492,1.5496,1.5513,1.5519,1.5448,1.5448,1.5448,0,1.5127,1.5166,1.5174,1.5203,1.5219,1.522,1.525,1.5266,1.5298,1.531,1.5302,1.536,1.5376,1.5421,1.5432,1.5444,1.5453,1.5441,1.549,1.5495,1.5499,1.5515,1.5521,1.5449,1.5449,1.5449,1.5448,0,1.518,1.5208,1.5228,1.5259,1.5278,1.5307,1.5321,1.5339,1.5342,1.5354,1.5392,1.5412,1.5442,1.5453,1.5457,1.5499,1.5494,1.5488,1.5474,1.5506,1.5521,1.5527,1.545,1.545,1.5449,1.5449,0,0,1.5221,1.5257,1.5265,1.5279,1.5308,1.5329,1.5359,1.5388,1.5404,1.5427,1.5452,1.5491,1.5487,1.5504,1.551,1.553,1.5565,1.5522,1.5523,1.553,1.5614,1.5618,1.5625,1.5565,1.5566,1.5567,1.5612,0,1.5261,1.5313,1.5322,1.5368,1.5394,1.5396,1.5422,1.5443,1.5455,1.5479,1.5492,1.552,1.5511,1.5521,1.5542,1.5557,1.5582,1.5554,1.559,1.5591,1.5584,1.5633,1.5637,1.5679,1.5618,1.5619,1.562,0,1.5313,1.5337,1.5386,1.5412,1.5423,1.5447,1.5475,1.5498,1.5522,1.5529,1.5549,1.5553,1.5585,1.5569,1.5614,1.5594,1.561,1.562,1.5621,1.5625,1.5607,1.5639,1.5692,1.5698,1.5629,1.5628,1.5628,0,1.5339,1.5384,1.5419,1.5431,1.5462,1.5479,1.5492,1.5515,1.5533,1.5558,1.5569,1.5598,1.5614,1.5636,1.5648,1.5635,1.5692,1.5677,1.57,1.57,1.5712,1.5711,1.5769,1.5721,1.5721,1.5721,1.5721,0,1.5382,1.5412,1.5431,1.5453,1.5487,1.5497,1.5531,1.5544,1.5565,1.559,1.5593,1.5617,1.5631,1.5657,1.5667,1.5703,1.571,1.5717,1.5719,1.5717,1.5716,1.5727,1.5725,1.5723,1.5722,1.5722,1.5722,0,1.5416,1.543,1.5469,1.5495,1.5502,1.5526,1.5549,1.5571,1.5583,1.5615,1.5623,1.5642,1.5673,1.5687,1.5725,1.5731,1.5773,1.5773,1.5765,1.5766,1.5788,1.5785,1.5855,1.5865,1.581,1.5811,1.5811,0,1.5443,1.5466,1.5495,1.5512,1.5527,1.5554,1.5572,1.5583,1.5602,1.5632,1.565,1.5681,1.5706,1.5756,1.5774,1.5803,1.5804,1.5827,1.5809,1.5806,1.5805,1.5804,1.5807,1.583,1.583,1.5831,1.5831,0,1.549,1.5496,1.5521,1.555,1.5571,1.5594,1.5616,1.563,1.5646,1.5667,1.5698,1.5718,1.5757,1.5788,1.5819,1.5834,1.5836,1.5837,1.5844,1.5841,1.5836,1.584,1.5774,1.5835,1.5835,1.5834,1.5834,1.5834,1.5521,1.5542,1.5566,1.5595,1.5614,1.5635,1.5657,1.5672,1.5698,1.5731,1.5736,1.577,1.5795,1.5836,1.5853,1.588,1.5875,1.5884,1.5887,1.5889,1.5891,1.5831,1.5885,1.5885,1.5885,1.5885,1.5885,0,1.5568,1.5584,1.5611,1.5642,1.5665,1.5665,1.569,1.5709,1.5739,1.5762,1.5787,1.5823,1.5854,1.5874,1.5905,1.5923,1.5925,1.5931,1.593,1.5934,1.5893,1.5884,1.5929,1.5929,1.5929,1.5929,1.5929,1.5929,1.5596,1.5632,1.5641,1.5686,1.5702,1.5735,1.5749,1.5769,1.5788,1.5829,1.5854,1.5867,1.5889,1.5922,1.595,1.5956,1.5967,1.5974,1.5979,1.5941,1.5936,1.5932,1.5924,1.5976,1.5976,1.6017,1.6017,1.6018]},{"header":{"parameterUnit":"m.s-1","parameterCategory":1,"la1":30.2991,"la2":30.254,"lo1":-89.0895,"lo2":-89.0444,"dy":0.0017,"dx":0.0017,"nx":28,"ny":28,"refTime":"2024-07-11T09:00:00:Z","depth":0,"parameterNumber":3,"parameterNumberName":"V-component_of_WINDS"},"data":[0,0,0,0,0,0,0,0,0,0,0,0,0,0,0,0,0,0,0,0,0,0,0,0,0,0,0,0,0,0,0,0,0,0,0,0,0,0,0,0,0,0,0,0,0,0,0,0,0,0,0,0,0,0,0,0,0,0,-0.6801,-0.6802,0,-0.6858,-0.6859,-0.686,-0.6876,-0.6876,-0.6876,-0.6875,-0.6937,-0.6939,-0.6941,0,0,0,0,0,0,0,0,0,0,0,0,0,-0.6709,-0.671,-0.6801,-0.6802,-0.6802,-0.6858,-0.6859,-0.686,-0.6876,-0.6876,-0.6876,-0.6875,-0.6936,-0.6938,-0.6941,0,0,0,0,0,0,0,0,0,0,0,0,0,-0.6756,-0.6711,-0.6801,-0.6817,-0.6819,-0.6858,-0.6859,-0.686,-0.6876,-0.6876,-0.6876,-0.6875,-0.6935,-0.6938,-0.6941,-0.6968,0,0,-0.695,-0.6951,0,0,0,0,0,0,0,0,-0.6753,-0.6759,-0.6814,-0.6816,-0.6819,-0.686,-0.6849,-0.6897,-0.6877,-0.6855,-0.6875,-0.6875,-0.6912,-0.6916,-0.6928,-0.6971,-0.6974,-0.695,-0.6952,-0.6953,-0.6954,0,0,0,0,0,0,0,-0.675,-0.6757,-0.6824,-0.6815,-0.6818,-0.6823,-0.6829,-0.6858,-0.6885,-0.6857,-0.6858,-0.6864,-0.6913,-0.6926,-0.693,-0.6975,-0.695,-0.6953,-0.6954,-0.6956,-0.7045,-0.7046,0,0,0,0,0,0,-0.6743,-0.6754,-0.6822,-0.6825,-0.6784,-0.6825,-0.6832,-0.6847,-0.6885,-0.689,-0.6865,-0.6865,-0.6921,-0.6927,-0.6932,-0.6968,-0.6953,-0.6956,-0.6957,-0.7045,-0.7045,-0.7046,0,0,0,0,0,0,-0.6741,-0.6749,-0.682,-0.679,-0.6799,-0.6827,-0.6844,-0.6848,-0.6861,-0.6891,-0.6896,-0.6873,-0.6921,-0.6928,-0.696,-0.697,-0.6957,-0.696,-0.7044,-0.7045,-0.7046,-0.7039,0,0,0,0,0,0,-0.6739,-0.6748,-0.6758,-0.679,-0.6801,-0.6845,-0.6845,-0.685,-0.6866,-0.6867,-0.69,-0.6905,-0.6921,-0.6955,-0.6962,-0.6974,-0.6962,-0.7043,-0.7044,-0.7045,-0.7039,-0.704,-0.7041,0,0,0,0,0,-0.6735,-0.6754,-0.6759,-0.6767,-0.6814,-0.6845,-0.6852,-0.6869,-0.6866,-0.6877,-0.6897,-0.6904,-0.6968,-0.6958,-0.6967,-0.6979,-0.7042,-0.7044,-0.7045,-0.7038,-0.704,-0.7041,0,0,0,0,0,0,-0.6723,-0.6759,-0.6764,-0.6793,-0.6816,-0.6848,-0.6862,-0.687,-0.6894,-0.6894,-0.6915,-0.6923,-0.6953,-0.6969,-0.6958,-0.7009,-0.7006,-0.7009,-0.6997,-0.6999,-0.7,-0.6996,-0.6964,0,0,0,0,0,-0.6724,-0.6746,-0.6776,-0.6799,-0.681,-0.6834,-0.6849,-0.686,-0.6885,-0.6895,-0.6917,-0.6941,-0.6967,-0.6984,-0.7009,-0.7041,-0.7049,-0.7054,-0.7055,-0.7056,-0.7059,-0.7079,-0.7081,-0.7051,-0.7051,-0.7051,0,0,-0.6726,-0.6748,-0.676,-0.6797,-0.6816,-0.684,-0.6842,-0.6867,-0.6885,-0.6899,-0.693,-0.6947,-0.6976,-0.7008,-0.7024,-0.7023,-0.7069,-0.7058,-0.7058,-0.7061,-0.708,-0.7083,-0.7086,-0.7052,-0.7052,-0.7052,0,0,-0.6741,-0.6759,-0.6782,-0.6801,-0.6829,-0.6845,-0.6851,-0.6882,-0.6893,-0.6925,-0.6937,-0.6959,-0.7002,-0.7023,-0.7039,-0.7064,-0.7072,-0.7072,-0.7078,-0.7097,-0.71,-0.7102,-0.7112,-0.7116,-0.7075,-0.7075,-0.7075,0,-0.674,-0.6775,-0.6792,-0.6816,-0.6833,-0.6846,-0.687,-0.6888,-0.6924,-0.6936,-0.6934,-0.699,-0.7011,-0.7049,-0.7055,-0.7067,-0.7075,-0.7069,-0.7098,-0.71,-0.7103,-0.7113,-0.7117,-0.7075,-0.7075,-0.7075,-0.7075,0,-0.6773,-0.6797,-0.6812,-0.6846,-0.6864,-0.6888,-0.691,-0.6926,-0.6937,-0.6953,-0.6986,-0.7011,-0.7043,-0.7052,-0.7063,-0.7093,-0.7091,-0.7093,-0.7091,-0.7105,-0.7115,-0.7119,-0.7074,-0.7074,-0.7074,-0.7074,0,0,-0.6782,-0.6826,-0.6831,-0.6847,-0.688,-0.69,-0.6925,-0.6955,-0.697,-0.6995,-0.7017,-0.7054,-0.7057,-0.7076,-0.7088,-0.7105,-0.7125,-0.7106,-0.7107,-0.7109,-0.7162,-0.716,-0.7164,-0.713,-0.7131,-0.7132,-0.716,0,-0.6802,-0.6847,-0.6864,-0.6901,-0.6924,-0.6938,-0.696,-0.6984,-0.7,-0.7024,-0.7042,-0.7069,-0.707,-0.7081,-0.7098,-0.7119,-0.7136,-0.7117,-0.7153,-0.7154,-0.7146,-0.7169,-0.7168,-0.7193,-0.7163,-0.7164,-0.7165,0,-0.6832,-0.6857,-0.6896,-0.6928,-0.6938,-0.6958,-0.6988,-0.7009,-0.7037,-0.7048,-0.7069,-0.7081,-0.711,-0.7105,-0.7145,-0.7132,-0.7148,-0.7161,-0.7162,-0.7167,-0.7161,-0.7176,-0.7201,-0.7205,-0.7171,-0.717,-0.717,0,-0.6836,-0.6879,-0.6909,-0.6922,-0.6959,-0.6973,-0.699,-0.7017,-0.7034,-0.7061,-0.7073,-0.7102,-0.7119,-0.7142,-0.7163,-0.7157,-0.7202,-0.7198,-0.7213,-0.7213,-0.7223,-0.7222,-0.7252,-0.7231,-0.7231,-0.7231,-0.7231,0,-0.6858,-0.6882,-0.6911,-0.6929,-0.6957,-0.6977,-0.7004,-0.7022,-0.7046,-0.7069,-0.7083,-0.7104,-0.7129,-0.7155,-0.7171,-0.7203,-0.721,-0.7221,-0.7225,-0.722,-0.7219,-0.7231,-0.7231,-0.7232,-0.7232,-0.7232,-0.7232,0,-0.6867,-0.6888,-0.6921,-0.6954,-0.6963,-0.6982,-0.7011,-0.703,-0.7047,-0.7076,-0.7084,-0.7112,-0.7143,-0.7165,-0.7205,-0.7216,-0.725,-0.7254,-0.7241,-0.7243,-0.7257,-0.7256,-0.7297,-0.7304,-0.7278,-0.7278,-0.7278,0,-0.688,-0.6899,-0.6934,-0.695,-0.6966,-0.6992,-0.701,-0.7031,-0.7049,-0.7083,-0.7099,-0.713,-0.7156,-0.7204,-0.7229,-0.726,-0.7265,-0.7277,-0.727,-0.7265,-0.7267,-0.7266,-0.7269,-0.7279,-0.7279,-0.7279,-0.7279,0,-0.6901,-0.6911,-0.6936,-0.6965,-0.6986,-0.701,-0.7035,-0.7048,-0.7073,-0.7094,-0.7125,-0.7145,-0.7186,-0.7217,-0.7251,-0.7269,-0.7279,-0.7281,-0.7287,-0.7282,-0.7274,-0.728,-0.7245,-0.728,-0.728,-0.728,-0.728,-0.728,-0.6914,-0.6932,-0.6959,-0.6987,-0.7008,-0.7031,-0.7051,-0.7071,-0.7097,-0.7131,-0.7142,-0.7175,-0.7204,-0.725,-0.7269,-0.7296,-0.7295,-0.7303,-0.7305,-0.7307,-0.7307,-0.7269,-0.7302,-0.7302,-0.7302,-0.7302,-0.7302,0,-0.6937,-0.6955,-0.6981,-0.7015,-0.7037,-0.7044,-0.7072,-0.709,-0.7119,-0.7145,-0.717,-0.7207,-0.7238,-0.7265,-0.7298,-0.7314,-0.732,-0.7322,-0.7322,-0.7326,-0.7304,-0.7297,-0.7317,-0.7317,-0.7317,-0.7317,-0.7317,-0.7317,-0.6951,-0.6982,-0.6995,-0.7037,-0.7056,-0.7088,-0.7103,-0.7125,-0.7146,-0.7186,-0.7212,-0.7229,-0.7256,-0.7291,-0.7321,-0.7328,-0.734,-0.7342,-0.735,-0.733,-0.7328,-0.7326,-0.7319,-0.7344,-0.7344,-0.737,-0.7371,-0.7371]}]]